Location: Goettingen
(51.5300°N, 9.9433°E)
Time: 10:58:45
(UTC+01:00)

ISS - Pass Details

Date: 20 March 2023
Orbit: 414 x 423 km, 51.6° (Epoch: 20 March)

Event Time Altitude Azimuth Distance (km) Brightness Sun altitude
Rises 20:13:59 0° 251° (WSW) 2,354 0.9 -16.2°
Reaches altitude 10° 20:16:05 10° 249° (WSW) 1,491 -0.3 -16.5°
Maximum altitude 20:19:25 71° 165° (SSE) 442 -3.9 -17.0°
Enters shadow 20:20:08 50° 99° (E) 538 -3.7 -17.1°
